[[{"header":{"parameterUnit":"m.s-1","parameterCategory":1,"la1":30.2991,"la2":30.254,"lo1":-89.0895,"lo2":-89.0444,"dy":0.0017,"dx":0.0017,"nx":28,"ny":28,"refTime":"2025-03-15T09:00:00:Z","depth":0,"parameterNumber":2,"parameterNumberName":"U-component_of_WINDS"},"data":[0,0,0,0,0,0,0,0,0,0,0,0,0,0,0,0,0,0,0,0,0,0,0,0,0,0,0,0,0,0,0,0,0,0,0,0,0,0,0,0,0,0,0,0,0,0,0,0,0,0,0,0,0,0,0,0,0,0,-4.5364,-4.5366,0,-4.5518,-4.552,-4.5521,-4.5588,-4.5587,-4.5587,-4.5587,-4.5742,-4.5746,-4.5751,0,0,0,0,0,0,0,0,0,0,0,0,0,-4.5126,-4.513,-4.5364,-4.5366,-4.5368,-4.5518,-4.552,-4.5522,-4.5588,-4.5587,-4.5587,-4.5587,-4.5741,-4.5746,-4.5751,0,0,0,0,0,0,0,0,0,0,0,0,0,-4.5249,-4.5131,-4.5364,-4.5419,-4.5425,-4.5517,-4.552,-4.5522,-4.5588,-4.5587,-4.5587,-4.5587,-4.5739,-4.5745,-4.5752,-4.58,0,0,-4.5772,-4.5775,0,0,0,0,0,0,0,0,-4.5242,-4.5258,-4.5409,-4.5415,-4.5423,-4.5533,-4.5493,-4.5615,-4.5588,-4.5526,-4.5587,-4.5587,-4.5673,-4.5685,-4.5714,-4.5807,-4.5814,-4.5772,-4.5776,-4.5779,-4.5781,0,0,0,0,0,0,0,-4.5234,-4.5252,-4.5425,-4.5411,-4.5419,-4.5435,-4.5453,-4.5516,-4.5599,-4.5531,-4.5537,-4.5554,-4.5677,-4.5708,-4.5719,-4.5816,-4.5772,-4.5778,-4.5782,-4.5785,-4.5956,-4.5957,0,0,0,0,0,0,-4.5216,-4.5244,-4.542,-4.5429,-4.533,-4.544,-4.5459,-4.5498,-4.5599,-4.5614,-4.5554,-4.5557,-4.5697,-4.5711,-4.5724,-4.5788,-4.5779,-4.5785,-4.5789,-4.5956,-4.5957,-4.5957,0,0,0,0,0,0,-4.5211,-4.5231,-4.5414,-4.5338,-4.5363,-4.5445,-4.5488,-4.5501,-4.5533,-4.5616,-4.5631,-4.5571,-4.5697,-4.5715,-4.5781,-4.5794,-4.5788,-4.5794,-4.5955,-4.5956,-4.5957,-4.5914,0,0,0,0,0,0,-4.5204,-4.5229,-4.5248,-4.5338,-4.5367,-4.5468,-4.5488,-4.5505,-4.5544,-4.5549,-4.5636,-4.565,-4.5698,-4.5771,-4.5787,-4.5803,-4.5799,-4.5954,-4.5955,-4.5957,-4.5914,-4.5913,-4.5912,0,0,0,0,0,-4.5195,-4.5229,-4.5249,-4.527,-4.5392,-4.5469,-4.5485,-4.554,-4.5545,-4.5565,-4.5619,-4.5647,-4.579,-4.5777,-4.5796,-4.5814,-4.5954,-4.5955,-4.5957,-4.5915,-4.5913,-4.5912,0,0,0,0,0,0,-4.5137,-4.5242,-4.5265,-4.5329,-4.539,-4.548,-4.5506,-4.5536,-4.5596,-4.5598,-4.5663,-4.5682,-4.5742,-4.5785,-4.5769,-4.5866,-4.5874,-4.5879,-4.5836,-4.5835,-4.5834,-4.5822,-4.5805,0,0,0,0,0,-4.5132,-4.5186,-4.5274,-4.5323,-4.5352,-4.5424,-4.5459,-4.5496,-4.5561,-4.5587,-4.5646,-4.5707,-4.5766,-4.5803,-4.5861,-4.5921,-4.5941,-4.5943,-4.5941,-4.594,-4.5944,-4.5979,-4.5981,-4.5962,-4.5962,-4.5962,0,0,-4.5122,-4.5186,-4.5216,-4.5313,-4.5364,-4.5418,-4.5445,-4.55,-4.5541,-4.5595,-4.5661,-4.5706,-4.5779,-4.5842,-4.5873,-4.5879,-4.5954,-4.5942,-4.594,-4.5945,-4.5981,-4.5983,-4.5984,-4.5963,-4.5963,-4.5963,0,0,-4.5131,-4.5185,-4.5231,-4.5282,-4.536,-4.5408,-4.5419,-4.5505,-4.5537,-4.5605,-4.5647,-4.5696,-4.5795,-4.5846,-4.5884,-4.5914,-4.5942,-4.5931,-4.5925,-4.5958,-4.596,-4.5962,-4.5972,-4.5975,-4.5934,-4.5934,-4.5934,0,-4.5108,-4.5192,-4.5251,-4.5305,-4.5347,-4.5399,-4.5447,-4.5493,-4.5585,-4.5613,-4.5619,-4.5746,-4.5799,-4.5875,-4.5882,-4.5911,-4.5926,-4.5921,-4.5955,-4.5957,-4.596,-4.5971,-4.5974,-4.5932,-4.5933,-4.5933,-4.5933,0,-4.516,-4.5217,-4.5246,-4.5335,-4.5379,-4.543,-4.5496,-4.5534,-4.5568,-4.5615,-4.5684,-4.5749,-4.5822,-4.5843,-4.5876,-4.5924,-4.5926,-4.5942,-4.5952,-4.5959,-4.597,-4.5975,-4.593,-4.593,-4.5931,-4.5931,0,0,-4.5137,-4.5259,-4.5268,-4.531,-4.5399,-4.5445,-4.5497,-4.557,-4.5601,-4.5663,-4.5709,-4.5793,-4.5809,-4.5853,-4.5893,-4.5922,-4.5942,-4.5936,-4.5938,-4.5935,-4.5999,-4.5986,-4.599,-4.5962,-4.5963,-4.5964,-4.5993,0,-4.5158,-4.5256,-4.5311,-4.5386,-4.5439,-4.5491,-4.5537,-4.5597,-4.5642,-4.5694,-4.5744,-4.5803,-4.582,-4.5847,-4.5879,-4.5932,-4.5956,-4.5931,-4.6005,-4.6007,-4.5985,-4.5996,-4.5982,-4.6007,-4.5998,-4.5999,-4.5999,0,-4.5196,-4.5259,-4.5338,-4.5423,-4.5448,-4.5488,-4.5559,-4.5608,-4.5677,-4.5709,-4.5758,-4.5797,-4.5855,-4.586,-4.5941,-4.5923,-4.5957,-4.5988,-4.599,-4.5999,-4.6003,-4.6005,-4.6016,-4.6019,-4.6007,-4.6006,-4.6006,0,-4.5172,-4.5275,-4.5337,-4.537,-4.547,-4.5498,-4.5541,-4.5609,-4.565,-4.5712,-4.5739,-4.5806,-4.5843,-4.5895,-4.5951,-4.595,-4.6026,-4.6036,-4.6054,-4.6052,-4.6067,-4.6065,-4.6083,-4.6088,-4.6088,-4.6088,-4.6088,0,-4.519,-4.5237,-4.5327,-4.5365,-4.5419,-4.5482,-4.5534,-4.5581,-4.5642,-4.5689,-4.5738,-4.5781,-4.5854,-4.5906,-4.5951,-4.6011,-4.6027,-4.6054,-4.6065,-4.605,-4.6046,-4.6072,-4.6072,-4.6089,-4.6089,-4.6089,-4.6089,0,-4.5171,-4.5234,-4.5304,-4.5393,-4.5417,-4.5453,-4.5529,-4.5568,-4.5616,-4.5676,-4.5694,-4.5769,-4.5834,-4.5896,-4.5982,-4.6012,-4.6072,-4.6087,-4.6049,-4.6055,-4.6069,-4.6067,-4.6104,-4.6113,-4.6111,-4.6111,-4.6111,0,-4.5179,-4.5216,-4.531,-4.5346,-4.5388,-4.5445,-4.5486,-4.555,-4.5591,-4.5673,-4.5702,-4.577,-4.5828,-4.5929,-4.5991,-4.6058,-4.6074,-4.6083,-4.6085,-4.6068,-4.6075,-4.6072,-4.6076,-4.6081,-4.6081,-4.6081,-4.6081,0,-4.5186,-4.5215,-4.5273,-4.5343,-4.5391,-4.5449,-4.5508,-4.5534,-4.5609,-4.5653,-4.572,-4.5765,-4.5854,-4.5921,-4.5995,-4.6039,-4.6072,-4.608,-4.6088,-4.6072,-4.6048,-4.6062,-4.6045,-4.6079,-4.6079,-4.6079,-4.6079,-4.6079,-4.5181,-4.5217,-4.5289,-4.5352,-4.5404,-4.5458,-4.5499,-4.5553,-4.561,-4.5687,-4.5721,-4.5789,-4.5858,-4.596,-4.6004,-4.6058,-4.6066,-4.6077,-4.6079,-4.6081,-4.6078,-4.604,-4.6072,-4.6072,-4.6072,-4.6072,-4.6072,0,-4.5191,-4.524,-4.5298,-4.5379,-4.5429,-4.5457,-4.5524,-4.5564,-4.5623,-4.5685,-4.5741,-4.5818,-4.5884,-4.5952,-4.6022,-4.6052,-4.6069,-4.6068,-4.6066,-4.6076,-4.6067,-4.6053,-4.6053,-4.6053,-4.6053,-4.6053,-4.6053,-4.6053,-4.5202,-4.5264,-4.5302,-4.539,-4.5439,-4.5506,-4.5542,-4.5592,-4.5642,-4.5726,-4.5781,-4.5825,-4.589,-4.5965,-4.6026,-4.6045,-4.6068,-4.6063,-4.6085,-4.6075,-4.6076,-4.6077,-4.6065,-4.6067,-4.6067,-4.609,-4.609,-4.609]},{"header":{"parameterUnit":"m.s-1","parameterCategory":1,"la1":30.2991,"la2":30.254,"lo1":-89.0895,"lo2":-89.0444,"dy":0.0017,"dx":0.0017,"nx":28,"ny":28,"refTime":"2025-03-15T09:00:00:Z","depth":0,"parameterNumber":3,"parameterNumberName":"V-component_of_WINDS"},"data":[0,0,0,0,0,0,0,0,0,0,0,0,0,0,0,0,0,0,0,0,0,0,0,0,0,0,0,0,0,0,0,0,0,0,0,0,0,0,0,0,0,0,0,0,0,0,0,0,0,0,0,0,0,0,0,0,0,0,8.0449,8.045,0,8.0572,8.0573,8.0575,8.0554,8.0551,8.0549,8.0547,8.067,8.0675,8.068,0,0,0,0,0,0,0,0,0,0,0,0,0,8.0195,8.02,8.0449,8.045,8.0452,8.0572,8.0573,8.0575,8.0554,8.0551,8.0549,8.0546,8.0668,8.0674,8.0681,0,0,0,0,0,0,0,0,0,0,0,0,0,8.031,8.0201,8.0449,8.0456,8.0458,8.0571,8.0573,8.0575,8.0554,8.0551,8.0548,8.0545,8.0666,8.0674,8.0681,8.0794,0,0,8.0706,8.0709,0,0,0,0,0,0,0,0,8.0304,8.0319,8.0453,8.0456,8.0458,8.0544,8.0529,8.0649,8.0555,8.0518,8.0547,8.0543,8.063,8.0641,8.0671,8.08,8.0805,8.0706,8.0711,8.0714,8.0717,0,0,0,0,0,0,0,8.0296,8.0314,8.0497,8.0455,8.0458,8.0453,8.0466,8.0551,8.059,8.0521,8.0519,8.0535,8.0631,8.0663,8.0674,8.0807,8.0706,8.0713,8.0718,8.0721,8.1039,8.1042,0,0,0,0,0,0,8.0286,8.0308,8.0493,8.0501,8.0371,8.046,8.0474,8.052,8.0589,8.0597,8.0537,8.0533,8.0652,8.0664,8.0678,8.0818,8.0714,8.0722,8.0726,8.1035,8.104,8.1044,0,0,0,0,0,0,8.028,8.0303,8.0488,8.0404,8.0427,8.0468,8.0519,8.0524,8.0556,8.0602,8.0608,8.0563,8.065,8.0667,8.0767,8.0822,8.0725,8.0732,8.1031,8.1037,8.1042,8.1097,0,0,0,0,0,0,8.0273,8.0301,8.0344,8.0405,8.0432,8.0576,8.0522,8.0528,8.057,8.0566,8.0628,8.0635,8.0648,8.0755,8.0775,8.0831,8.0739,8.1026,8.1033,8.104,8.109,8.1103,8.1115,0,0,0,0,0,8.0264,8.0353,8.0346,8.0369,8.0487,8.0579,8.0594,8.0608,8.0575,8.0619,8.0649,8.0633,8.0812,8.0765,8.0787,8.0847,8.1023,8.1031,8.1039,8.1085,8.1101,8.1114,0,0,0,0,0,0,8.0295,8.0361,8.0354,8.0466,8.0517,8.0575,8.0631,8.0624,8.0685,8.0679,8.0693,8.0707,8.0809,8.0837,8.0784,8.0961,8.0913,8.0926,8.094,8.0955,8.0967,8.0959,8.0745,0,0,0,0,0,8.0315,8.0385,8.0438,8.0531,8.0558,8.059,8.063,8.0637,8.0691,8.0712,8.0749,8.08,8.0869,8.0913,8.0978,8.1093,8.1108,8.1145,8.1158,8.1167,8.1179,8.1246,8.1264,8.1071,8.1071,8.1071,0,0,8.0357,8.0402,8.0444,8.0539,8.0579,8.0652,8.0608,8.0685,8.074,8.0723,8.0821,8.085,8.0909,8.1018,8.1068,8.1045,8.1236,8.1178,8.1186,8.1192,8.1257,8.1275,8.1291,8.1077,8.1076,8.1075,0,0,8.0471,8.051,8.0594,8.0637,8.07,8.0721,8.0741,8.0801,8.0821,8.092,8.091,8.0973,8.109,8.1133,8.117,8.1304,8.1293,8.1324,8.139,8.1455,8.147,8.1483,8.1534,8.1552,8.1336,8.1336,8.1336,0,8.0515,8.0624,8.0638,8.0718,8.0761,8.0751,8.0837,8.0877,8.0957,8.0987,8.096,8.1109,8.1147,8.1268,8.1301,8.133,8.1355,8.1318,8.1467,8.148,8.1493,8.1542,8.1561,8.1339,8.1339,8.1339,8.1338,0,8.0676,8.0752,8.0812,8.0893,8.0942,8.1024,8.1052,8.11,8.1103,8.1127,8.1229,8.1276,8.1352,8.138,8.1382,8.1503,8.1487,8.1463,8.1415,8.1515,8.1561,8.158,8.1345,8.1343,8.1342,8.1341,0,0,8.0813,8.0903,8.0925,8.0963,8.1033,8.1092,8.1174,8.125,8.1293,8.1348,8.1419,8.1519,8.1499,8.1541,8.1548,8.1605,8.1713,8.1575,8.1576,8.1602,8.1852,8.1872,8.1893,8.1705,8.1709,8.1711,8.1848,0,8.0936,8.1083,8.11,8.1231,8.1303,8.1296,8.1368,8.1419,8.1445,8.1509,8.1536,8.1609,8.1574,8.1601,8.1656,8.1688,8.1763,8.1678,8.1773,8.1776,8.1761,8.1916,8.1937,8.2064,8.1866,8.1869,8.1871,0,8.1099,8.1163,8.1302,8.1366,8.1396,8.1461,8.1534,8.1595,8.1654,8.1668,8.1717,8.1718,8.1804,8.1751,8.1871,8.1813,8.1852,8.1874,8.1879,8.1891,8.1831,8.1935,8.2104,8.2124,8.1899,8.1897,8.1895,0,8.1189,8.1309,8.141,8.1442,8.1517,8.1563,8.1597,8.1652,8.1698,8.1761,8.1791,8.1862,8.1902,8.1958,8.1978,8.1937,8.2098,8.2046,8.2115,8.2114,8.215,8.2148,8.2331,8.2171,8.2171,8.217,8.217,0,8.1326,8.1413,8.1452,8.1514,8.1611,8.1629,8.1724,8.1755,8.1805,8.1873,8.187,8.1934,8.1955,8.2023,8.2039,8.2138,8.2155,8.217,8.2174,8.2173,8.2171,8.2201,8.2194,8.2176,8.2174,8.2173,8.2173,0,8.1444,8.1473,8.1583,8.1646,8.1664,8.1734,8.1788,8.1848,8.1873,8.1959,8.1981,8.202,8.21,8.2126,8.2221,8.2232,8.2349,8.2343,8.233,8.2332,8.24,8.2394,8.261,8.2641,8.2458,8.2459,8.2461,0,8.1532,8.1599,8.167,8.1717,8.1753,8.1826,8.1874,8.1894,8.1944,8.2017,8.2069,8.2149,8.2214,8.2342,8.2379,8.2453,8.2451,8.2522,8.2462,8.246,8.2457,8.2454,8.2462,8.2534,8.2536,8.2537,8.2538,0,8.1685,8.1696,8.1766,8.1842,8.1899,8.1959,8.2017,8.2055,8.2084,8.214,8.2223,8.2274,8.2373,8.2453,8.2529,8.2563,8.2557,8.2557,8.2577,8.2578,8.2569,8.2578,8.2364,8.2552,8.2551,8.255,8.2549,8.2549,8.1792,8.1853,8.1914,8.1992,8.2038,8.2093,8.2155,8.2188,8.2258,8.2342,8.2349,8.244,8.2498,8.26,8.2638,8.271,8.2689,8.2718,8.2726,8.2733,8.2741,8.2556,8.2723,8.2722,8.2722,8.2722,8.2722,0,8.1948,8.1988,8.2059,8.2142,8.2205,8.2194,8.2258,8.2311,8.2391,8.2446,8.2512,8.2609,8.2687,8.2731,8.2809,8.2858,8.2857,8.2878,8.2876,8.2885,8.2752,8.2729,8.2878,8.2878,8.2878,8.2878,8.2878,8.2878,8.2037,8.214,8.216,8.2287,8.2325,8.2415,8.2453,8.2505,8.255,8.2659,8.2725,8.2753,8.2805,8.2888,8.2959,8.297,8.3001,8.3025,8.3034,8.291,8.2894,8.2878,8.2857,8.303,8.303,8.3161,8.3162,8.3163]}]]